Hourly Weather Roundup
Issued by NWS Central Illinois

Home | Current Version | Previous Version | Text Only | Print | Product List | Glossary On
Versions: 1 2 3 4 5 6 7 8 9 10 11 12 13 14 15 16 17 18 19 20 21 22 23 24 25 26 27 28 29 30 31 32 33 34 35 36 37 38 39 40 41 42 43 44 45 46 47 48 49 50
000
NZUS43 KILX 242010
HWRILX

AREA WEATHER ROUNDUP
NATIONAL WEATHER SERVICE, LINCOLN IL
300 PM CDT FRI APR 24 2015


CITY           SKY/WX    TMP DP  RH WIND       PRES   REMARKS
BLOOMINGTON    CLOUDY    62  30  30 S17G23    29.93F
CHAMPAIGN      CLOUDY    63  23  21 SE16      29.95F
DECATUR        CLOUDY    62  30  29 SE15      29.93F
EFFINGHAM      CLOUDY    60  25  26 E9G17     29.95F
FLORA          CLOUDY    60  33  35 S9        29.97F
GALESBURG      CLOUDY    63  32  31 SE14G24   29.83F
JACKSONVILLE   CLOUDY    64  33  32 S13G25    29.86F
LACON          PTSUNNY   60  23  24 S10G17    29.90F
LAWRENCEVILLE  CLOUDY    64  31  28 SE10      29.97F
LITCHFIELD     CLOUDY    59  32  36 SE17      29.91F
$$


CITY           SKY/WX    TMP DP  RH WIND       PRES   REMARKS
LINCOLN        CLOUDY    63  29  27 SE15G23   29.90F
MACOMB         CLOUDY    65  31  28 SE20G31   29.85F
MATTOON        CLOUDY    62  29  28 S14G23    29.94F
MT CARMEL AP   CLOUDY    64  18  16 S12       29.97F
OLNEY-NOBLE AP CLOUDY    61  32  33 SE10      29.97F
PARIS          CLOUDY    60  32  34 SE12      29.97F
PEORIA         CLOUDY    65  30  27 S18G30    29.89F
PONTIAC        CLOUDY    64  24  21 S12       29.93F
RANTOUL        CLOUDY    62  24  23 SE14      29.95F
ROBINSON       CLOUDY    63  28  25 SE10      29.98F
SPRINGFIELD    CLOUDY    63  34  33 S21       29.89F
TAYLORVILLE    CLOUDY    61  32  33 S18       29.91F
$$

...REGIONAL REPORTS...


CITY           SKY/WX    TMP DP  RH WIND       PRES   REMARKS
CHICAGO O`HARE CLOUDY    54  20  26 E10       29.97F
KANKAKEE       CLOUDY    62  25  24 SE6       29.95F
MOLINE         CLOUDY    61  26  26 SE17G28   29.83
MOUNT VERNON   CLOUDY    63  30  29 SE12      29.96F
PITTSFIELD     CLOUDY    66  34  31 S17G28    29.85S
QUINCY         CLOUDY    65  35  33 S15G28    29.80F
ROCKFORD       CLOUDY    54  28  36 E16       29.94F
$$


CITY           SKY/WX    TMP DP  RH WIND       PRES   REMARKS
BURLINGTON     CLOUDY    64  35  34 SE16      29.79
CEDAR RAPIDS   TSTM      46  43  89 N8        29.89R FOG
DES MOINES     CLOUDY    57  50  77 SE8       29.74F
KIRKSVILLE     CLOUDY    65  47  52 S17G24    29.76F
OTTUMWA        CLOUDY    61  40  45 S16       29.75F
ST LOUIS       NOT AVBL
$$


CITY           SKY/WX    TMP DP  RH WIND       PRES   REMARKS
TERRE HAUTE    CLOUDY    61  29  29 SE7       29.98F
EVANSVILLE     CLOUDY    63  29  27 SE10      29.99F
INDIANAPOLIS   CLOUDY    60  22  23 VRB6      29.98F
LAFAYETTE      PTSUNNY   60  21  22 VRB6      29.97F
MADISON        CLOUDY    53  18  25 S6        29.96F
MILWAUKEE      CLOUDY    45  28  51 SE9       30.01F
$$





USA.gov is the U.S. government's official web portal to all federal, state and local government web resources and services.